TimeCDT,TemperatureF,Dew PointF,Humidity,Sea Level PressureIn,VisibilityMPH,Wind Direction,Wind SpeedMPH,Gust SpeedMPH,PrecipitationIn,Events,Conditions,WindDirDegrees,DateUTC
12:15 AM,57.2,51.8,82,29.81,10.0,WNW,10.4,-,N/A,,Scattered Clouds,300,2013-09-21 05:15:00
12:35 AM,57.2,51.8,82,29.82,10.0,WNW,9.2,-,N/A,,Mostly Cloudy,290,2013-09-21 05:35:00
12:55 AM,55.4,51.8,88,29.82,10.0,WNW,6.9,-,N/A,,Scattered Clouds,290,2013-09-21 05:55:00
1:15 AM,55.4,51.8,88,29.82,10.0,West,8.1,-,N/A,,Clear,280,2013-09-21 06:15:00
1:35 AM,55.4,51.8,88,29.83,10.0,WNW,6.9,-,N/A,,Clear,290,2013-09-21 06:35:00
1:55 AM,53.6,50.0,88,29.83,10.0,WNW,4.6,-,N/A,,Clear,290,2013-09-21 06:55:00
2:15 AM,53.6,50.0,88,29.82,10.0,WNW,4.6,-,N/A,,Clear,300,2013-09-21 07:15:00
2:35 AM,53.6,50.0,88,29.82,10.0,WNW,5.8,-,N/A,,Clear,290,2013-09-21 07:35:00
2:55 AM,53.6,50.0,88,29.82,10.0,NW,8.1,-,N/A,,Clear,310,2013-09-21 07:55:00
3:15 AM,53.6,50.0,88,29.82,10.0,NW,5.8,-,N/A,,Clear,310,2013-09-21 08:15:00
3:35 AM,51.8,48.2,88,29.82,10.0,NW,6.9,-,N/A,,Clear,310,2013-09-21 08:35:00
3:55 AM,51.8,48.2,88,29.83,10.0,WNW,4.6,-,N/A,,Clear,300,2013-09-21 08:55:00
4:15 AM,51.8,48.2,88,29.83,10.0,NW,4.6,-,N/A,,Clear,310,2013-09-21 09:15:00
4:35 AM,51.8,46.4,82,29.83,10.0,WNW,4.6,-,N/A,,Clear,300,2013-09-21 09:35:00
4:55 AM,51.8,46.4,82,29.84,10.0,NW,6.9,-,N/A,,Clear,310,2013-09-21 09:55:00
5:15 AM,51.8,46.4,82,29.84,10.0,NW,6.9,-,N/A,,Clear,320,2013-09-21 10:15:00
5:35 AM,50.0,46.4,87,29.84,10.0,NW,8.1,-,N/A,,Clear,320,2013-09-21 10:35:00
5:55 AM,50.0,46.4,87,29.85,10.0,NW,6.9,-,N/A,,Clear,310,2013-09-21 10:55:00
6:15 AM,50.0,46.4,87,29.85,10.0,NW,5.8,-,N/A,,Clear,310,2013-09-21 11:15:00
6:35 AM,50.0,44.6,82,29.86,10.0,NW,5.8,-,N/A,,Clear,310,2013-09-21 11:35:00
6:45 AM,50.0,46.4,87,29.86,10.0,WNW,5.8,-,N/A,,Clear,300,2013-09-21 11:45:00
6:55 AM,50.0,44.6,82,29.86,10.0,WNW,5.8,-,N/A,,Clear,300,2013-09-21 11:55:00
7:45 AM,51.8,46.4,82,29.87,10.0,NW,9.2,-,N/A,,Clear,310,2013-09-21 12:45:00
8:45 AM,53.6,46.4,77,29.88,10.0,NW,11.5,-,N/A,,Clear,320,2013-09-21 13:45:00
9:45 AM,57.2,44.6,63,29.88,10.0,NNW,11.5,18.4,N/A,,Clear,330,2013-09-21 14:45:00
10:45 AM,57.2,42.8,59,29.88,10.0,NW,16.1,-,N/A,,Mostly Cloudy,320,2013-09-21 15:45:00
11:45 AM,57.2,42.8,59,29.89,10.0,WNW,12.7,-,N/A,,Overcast,290,2013-09-21 16:45:00
12:45 PM,57.2,42.8,59,29.90,10.0,NW,11.5,-,N/A,,Overcast,320,2013-09-21 17:45:00
1:45 PM,57.2,42.8,59,29.90,10.0,NW,13.8,-,N/A,,Overcast,310,2013-09-21 18:45:00
2:45 PM,59.0,42.8,55,29.90,10.0,West,10.4,-,N/A,,Overcast,280,2013-09-21 19:45:00
3:45 PM,57.2,42.8,59,29.90,10.0,WNW,10.4,-,N/A,,Overcast,290,2013-09-21 20:45:00
4:45 PM,57.2,42.8,59,29.91,10.0,WNW,8.1,-,N/A,,Overcast,290,2013-09-21 21:45:00
5:45 PM,57.2,42.8,59,29.90,10.0,WNW,4.6,-,N/A,,Overcast,300,2013-09-21 22:45:00
6:45 PM,55.4,42.8,63,29.91,10.0,West,3.5,-,N/A,,Mostly Cloudy,280,2013-09-21 23:45:00
7:45 PM,55.4,44.6,67,29.92,10.0,West,4.6,-,N/A,,Overcast,270,2013-09-22 00:45:00
8:45 PM,53.6,44.6,72,29.94,10.0,WNW,3.5,-,N/A,,Overcast,290,2013-09-22 01:45:00
9:15 PM,51.8,42.8,71,29.94,10.0,NW,3.5,-,N/A,,Overcast,320,2013-09-22 02:15:00
9:35 PM,51.8,42.8,71,29.95,10.0,NW,4.6,-,N/A,,Mostly Cloudy,320,2013-09-22 02:35:00
9:55 PM,50.0,42.8,76,29.95,10.0,Calm,Calm,-,N/A,,Scattered Clouds,0,2013-09-22 02:55:00
10:15 PM,50.0,42.8,76,29.95,10.0,Calm,Calm,-,N/A,,Clear,0,2013-09-22 03:15:00
10:35 PM,48.2,42.8,82,29.96,10.0,Calm,Calm,-,N/A,,Clear,0,2013-09-22 03:35:00
10:55 PM,50.0,42.8,76,29.96,10.0,Calm,Calm,-,N/A,,Clear,0,2013-09-22 03:55:00
11:15 PM,48.2,42.8,82,29.96,10.0,Calm,Calm,-,N/A,,Clear,0,2013-09-22 04:15:00
11:35 PM,46.4,42.8,87,29.97,10.0,Calm,Calm,-,N/A,,Clear,0,2013-09-22 04:35:00
11:55 PM,44.6,41.0,87,29.97,10.0,Calm,Calm,-,N/A,,Clear,0,2013-09-22 04:55:00